Location: ????????
(55.5667°N, 37.5833°E)
Time: 07:06:00
(UTC+00:00)

IDEFIX/ARIANE 42P - Pass Details

Date: 14 April 2026
Orbit: 780 x 797 km, 98.6° (Epoch: 12 May)

Event Time Altitude Azimuth Distance (km) Brightness Sun altitude
Rises 22:37:59 0° 20° (NNE) 3,280 7.2 -23.2°
Reaches altitude 10° 22:40:29 10° 29° (NNE) 2,348 6.1 -23.1°
Maximum altitude 22:45:17 37° 96° (E) 1,203 3.6 -22.9°
Enters shadow 22:47:03 29° 136° (SE) 1,416 3.6 -22.8°
